TimeEDT,TemperatureF,Dew PointF,Humidity,Sea Level PressureIn,VisibilityMPH,Wind Direction,Wind SpeedMPH,Gust SpeedMPH,PrecipitationIn,Events,Conditions,WindDirDegrees,DateUTC
12:36 AM,82.4,75.2,79,29.97,10.0,Calm,Calm,-,N/A,Thunderstorm,Thunderstorm,0,2013-09-07 04:36:00
12:53 AM,83.5,76.1,78,29.97,10.0,ENE,3.5,-,N/A,Thunderstorm,Thunderstorm,60,2013-09-07 04:53:00
1:44 AM,78.8,73.4,83,29.96,4.0,ESE,10.4,18.4,0.00,Rain-Thunderstorm,Thunderstorms and Rain,110,2013-09-07 05:44:00
1:53 AM,77.2,71.1,81,29.96,8.0,Variable,4.6,-,0.10,Rain-Thunderstorm,Light Thunderstorms and Rain,0,2013-09-07 05:53:00
2:11 AM,77.0,73.4,89,29.94,10.0,Calm,Calm,-,0.04,Rain-Thunderstorm,Light Thunderstorms and Rain,0,2013-09-07 06:11:00
2:32 AM,77.0,73.4,89,29.95,10.0,Calm,Calm,-,0.04,,Mostly Cloudy,0,2013-09-07 06:32:00
2:53 AM,78.4,73.6,85,29.94,10.0,Calm,Calm,-,0.04,,Mostly Cloudy,0,2013-09-07 06:53:00
3:53 AM,79.0,75.0,88,29.94,10.0,Calm,Calm,-,N/A,,Mostly Cloudy,0,2013-09-07 07:53:00
4:53 AM,78.4,75.0,89,29.94,10.0,NW,9.2,-,N/A,,Mostly Cloudy,320,2013-09-07 08:53:00
5:07 AM,78.8,75.2,89,29.93,8.0,NNW,11.5,-,0.01,Rain-Thunderstorm,Thunderstorms and Rain,340,2013-09-07 09:07:00
5:27 AM,77.0,73.4,89,29.94,1.0,North,6.9,-,0.15,Rain-Thunderstorm,Heavy Thunderstorms and Rain,350,2013-09-07 09:27:00
5:53 AM,76.1,70.0,81,29.96,4.0,NE,12.7,23.0,0.31,Rain-Thunderstorm,Heavy Thunderstorms and Rain,50,2013-09-07 09:53:00
6:27 AM,77.0,71.6,83,29.96,10.0,North,4.6,-,0.02,Rain-Thunderstorm,Light Thunderstorms and Rain,10,2013-09-07 10:27:00
6:53 AM,77.0,72.1,85,29.95,10.0,Calm,Calm,-,0.03,Thunderstorm,Thunderstorm,0,2013-09-07 10:53:00
7:30 AM,75.2,73.4,94,29.95,10.0,NNW,3.5,-,N/A,,Mostly Cloudy,330,2013-09-07 11:30:00
7:53 AM,76.6,73.6,90,29.95,10.0,Calm,Calm,-,N/A,,Mostly Cloudy,0,2013-09-07 11:53:00
8:53 AM,79.3,75.0,87,29.97,10.0,Calm,Calm,-,N/A,,Mostly Cloudy,0,2013-09-07 12:53:00
9:53 AM,83.3,76.8,81,29.97,10.0,NE,9.2,-,N/A,,Mostly Cloudy,40,2013-09-07 13:53:00
10:53 AM,84.9,74.3,70,29.99,10.0,ENE,6.9,-,N/A,,Mostly Cloudy,70,2013-09-07 14:53:00
11:53 AM,84.9,73.0,67,29.99,10.0,ENE,9.2,-,N/A,,Mostly Cloudy,70,2013-09-07 15:53:00
12:17 PM,84.2,73.4,70,29.98,10.0,ENE,5.8,-,N/A,,Mostly Cloudy,70,2013-09-07 16:17:00
12:53 PM,84.9,73.0,67,29.98,10.0,NE,10.4,-,N/A,,Mostly Cloudy,50,2013-09-07 16:53:00
1:53 PM,86.0,71.1,61,29.96,10.0,East,8.1,-,N/A,,Mostly Cloudy,80,2013-09-07 17:53:00
2:14 PM,84.2,71.6,66,29.95,10.0,East,10.4,-,N/A,Thunderstorm,Thunderstorm,100,2013-09-07 18:14:00
2:53 PM,82.9,72.0,69,29.97,10.0,South,5.8,-,N/A,Thunderstorm,Thunderstorm,190,2013-09-07 18:53:00
3:53 PM,75.9,72.0,87,29.97,10.0,NW,11.5,-,0.00,Thunderstorm,Thunderstorm,320,2013-09-07 19:53:00
4:53 PM,75.0,71.1,87,29.94,10.0,NW,4.6,-,0.07,Rain-Thunderstorm,Light Thunderstorms and Rain,310,2013-09-07 20:53:00
5:15 PM,75.2,69.8,83,29.92,10.0,NNW,5.8,-,0.00,Rain,Light Rain,340,2013-09-07 21:15:00
5:53 PM,75.9,70.0,82,29.91,10.0,North,3.5,-,0.00,,Mostly Cloudy,360,2013-09-07 21:53:00
6:53 PM,77.0,71.1,82,29.92,10.0,NNW,3.5,-,N/A,,Mostly Cloudy,340,2013-09-07 22:53:00
7:53 PM,75.9,72.0,87,29.92,10.0,SW,3.5,-,N/A,,Mostly Cloudy,230,2013-09-07 23:53:00
8:53 PM,75.9,72.0,87,29.95,10.0,West,4.6,-,N/A,,Mostly Cloudy,280,2013-09-08 00:53:00
9:53 PM,75.0,71.1,87,29.96,10.0,WNW,4.6,-,N/A,,Mostly Cloudy,300,2013-09-08 01:53:00
10:53 PM,75.0,71.1,87,29.95,10.0,NNW,4.6,-,N/A,,Mostly Cloudy,330,2013-09-08 02:53:00
11:53 PM,76.5,72.5,87,29.95,10.0,NNW,6.9,-,N/A,,Scattered Clouds,330,2013-09-08 03:53:00